FW8207 Weather Reports


Display with metric or nautical units.
time (UTC)temp
F
wind
direction
speed
MPH
gust
MPH
rain 1hr
in
rain 24hr
in
rain mn
in
humidity
%
barometer
mb
20260510104958 55 117 0.0 0.0 0.00 0.00 0.00 91 1014.9
20260510104455 55 118 1.0 1.0 0.00 0.00 0.00 91 1015.2
20260510103951 55 121 0.0 0.0 0.00 0.00 0.00 91 1015.0
20260510103449 55 110 0.0 1.0 0.00 0.00 0.00 91 1015.0
20260510102944 55 116 0.0 0.0 0.00 0.00 0.00 91 1015.0
20260510102440 55 104 1.0 1.0 0.00 0.00 0.00 91 1014.9
20260510101937 55 115 0.0 0.0 0.00 0.00 0.00 91 1014.9
20260510101435 54 122 0.0 0.0 0.00 0.00 0.00 91 1014.7
20260510100933 55 132 0.0 0.0 0.00 0.00 0.00 91 1014.9
20260510100429 55 127 1.0 1.0 0.00 0.00 0.00 91 1014.7
20260510095925 55 127 1.0 1.0 0.00 0.00 0.00 90 1014.8
20260510095421 55 122 0.0 0.0 0.00 0.00 0.00 89 1014.7
20260510094920 55 118 0.0 0.0 0.00 0.00 0.00 89 1014.7
20260510094415 56 48 2.0 2.0 0.00 0.00 0.00 88 1014.4
20260510093911 57 16 4.0 5.0 0.00 0.00 0.00 87 1014.5
20260510093407 57 108 0.0 1.0 0.00 0.00 0.00 87 1014.4
20260510092903 57 112 0.0 0.0 0.00 0.00 0.00 87 1014.5
20260510092401 57 121 0.0 0.0 0.00 0.00 0.00 87 1014.3
20260510091855 57 117 0.0 0.0 0.00 0.00 0.00 88 1014.2
20260510091353 57 123 0.0 0.0 0.00 0.00 0.00 88 1014.1
20260510090849 57 116 0.0 0.0 0.00 0.00 0.00 88 1013.9
20260510090345 56 106 1.0 1.0 0.00 0.00 0.00 89 1014.3
20260510085841 57 113 1.0 1.0 0.00 0.00 0.00 88 1014.2
20260510085336 56 114 1.0 1.0 0.00 0.00 0.00 88 1014.1
20260510084832 56 109 1.0 1.0 0.00 0.00 0.00 89 1013.7
20260510084329 56 113 1.0 1.0 0.00 0.00 0.00 91 1014.0
20260510083826 56 131 2.0 2.0 0.00 0.00 0.00 90 1013.9
20260510083323 56 113 1.0 1.0 0.00 0.00 0.00 89 1013.9
20260510082818 56 124 1.0 1.0 0.00 0.00 0.00 89 1013.9
20260510082316 56 131 1.0 1.0 0.00 0.00 0.00 91 1013.9
20260510081814 56 109 0.0 0.0 0.00 0.00 0.00 90 1014.3
20260510081310 55 116 0.0 0.0 0.00 0.00 0.00 90 1014.0
20260510080807 55 109 1.0 1.0 0.00 0.00 0.00 90 1014.2
20260510080301 55 125 0.0 0.0 0.00 0.00 0.00 90 1014.4
20260510075759 55 119 0.0 0.0 0.00 0.00 0.00 90 1014.3
20260510075256 55 108 1.0 1.0 0.00 0.00 0.00 90 1014.2
20260510074753 55 127 0.0 0.0 0.00 0.00 0.00 89 1014.3
20260510074250 55 105 1.0 1.0 0.00 0.00 0.00 90 1014.0
20260510073746 55 98 1.0 2.0 0.00 0.00 0.00 89 1014.1
20260510073242 55 132 0.0 0.0 0.00 0.00 0.00 89 1014.2
20260510072737 55 121 0.0 0.0 0.00 0.00 0.00 88 1014.3
20260510072234 55 113 0.0 0.0 0.00 0.00 0.00 87 1014.1
20260510071731 56 122 0.0 0.0 0.00 0.00 0.00 87 1014.1
20260510071228 55 102 1.0 1.0 0.00 0.00 0.00 87 1013.9
20260510070726 56 109 0.0 1.0 0.00 0.00 0.00 87 1013.9
20260510070223 56 108 1.0 1.0 0.00 0.00 0.00 86 1014.0
20260510065718 56 125 1.0 2.0 0.00 0.00 0.00 85 1014.2
20260510065214 56 110 1.0 1.0 0.00 0.00 0.00 85 1013.9
20260510064711 57 116 0.0 0.0 0.00 0.00 0.00 84 1014.0
20260510064209 56 52 3.0 3.0 0.00 0.00 0.00 84 1014.0
20260510063705 56 78 1.0 1.0 0.00 0.00 0.00 86 1014.0
20260510063201 56 12 3.0 3.0 0.00 0.00 0.00 87 1013.9
20260510062658 56 114 0.0 0.0 0.00 0.00 0.00 86 1013.7
20260510062154 56 115 0.0 0.0 0.00 0.00 0.00 86 1013.7
20260510061649 56 121 0.0 0.0 0.00 0.00 0.00 86 1013.4
20260510061147 56 129 0.0 0.0 0.00 0.00 0.00 86 1013.6
20260510060643 56 124 0.0 0.0 0.00 0.00 0.00 85 1013.4
20260510060140 56 122 0.0 0.0 0.00 0.00 0.00 85 1013.6
20260510055636 57 123 0.0 0.0 0.00 0.00 0.00 85 1013.4
20260510055134 57 119 0.0 0.0 0.00 0.00 0.00 84 1013.5
20260510054629 57 121 0.0 0.0 0.00 0.00 0.00 83 1013.5
20260510054125 57 123 0.0 0.0 0.00 0.00 0.00 85 1013.7
20260510053624 57 123 0.0 0.0 0.00 0.00 0.00 85 1013.7
20260510053121 58 124 0.0 0.0 0.00 0.00 0.00 85 1013.6
20260510052617 58 121 0.0 0.0 0.00 0.00 0.00 84 1014.0
20260510052114 58 121 0.0 0.0 0.00 0.00 0.00 84 1013.6
20260510051609 58 120 0.0 0.0 0.00 0.00 0.00 84 1013.6
20260510051107 58 124 0.0 0.0 0.00 0.00 0.00 84 1013.2
20260510050604 59 127 0.0 0.0 0.00 0.00 0.00 83 1013.5
20260510050100 59 127 0.0 0.0 0.00 0.00 0.00 83 1013.4
20260510045558 59 122 0.0 0.0 0.00 0.01 0.01 83 1013.4
20260510045053 59 118 0.0 0.0 0.00 0.01 0.01 82 1013.4
20260510044550 59 117 0.0 0.0 0.00 0.01 0.01 81 1013.4
20260510044048 59 129 0.0 0.0 0.00 0.01 0.01 81 1013.5
20260510043543 59 122 0.0 0.0 0.00 0.01 0.01 80 1013.4
20260510043039 59 123 0.0 0.0 0.00 0.01 0.01 80 1013.4
20260510042533 59 127 0.0 0.0 0.00 0.01 0.01 80 1013.3
20260510042028 59 124 0.0 0.0 0.00 0.01 0.01 80 1013.2
20260510041526 59 123 0.0 0.0 0.00 0.01 0.01 80 1013.2
20260510041023 59 127 0.0 0.0 0.00 0.01 0.01 80 1012.9
20260510040519 59 121 0.0 0.0 0.00 0.01 0.01 81 1012.9
20260510040015 59 122 0.0 0.0 0.00 0.01 0.01 81 1013.0
20260510035512 59 126 0.0 0.0 0.00 0.01 0.01 80 1013.0
20260510035011 59 122 0.0 0.0 0.00 0.01 0.01 80 1012.9
20260510034510 59 121 0.0 0.0 0.00 0.01 0.01 81 1013.0
20260510034006 59 123 0.0 0.0 0.00 0.01 0.01 81 1013.0
20260510033502 59 118 0.0 0.0 0.00 0.01 0.01 81 1013.0
20260510033001 59 121 0.0 0.0 0.00 0.01 0.01 80 1013.0
20260510032457 59 123 0.0 0.0 0.00 0.01 0.01 78 1013.1
20260510031957 59 120 0.0 0.0 0.00 0.01 0.01 78 1012.9
20260510031452 59 119 0.0 0.0 0.00 0.01 0.01 78 1012.9
20260510030949 60 127 0.0 0.0 0.00 0.01 0.01 78 1012.8
20260510030444 60 123 0.0 0.0 0.00 0.01 0.01 75 1012.7
20260510025942 60 124 0.0 0.0 0.00 0.01 0.01 75 1012.6
20260510025439 61 121 0.0 0.0 0.00 0.01 0.01 74 1012.6
20260510024936 62 120 0.0 0.0 0.00 0.01 0.01 74 1012.4
20260510024433 61 117 1.0 1.0 0.00 0.01 0.01 75 1012.3
20260510023928 61 126 1.0 1.0 0.00 0.01 0.01 75 1012.0
20260510023425 61 119 0.0 0.0 0.00 0.01 0.01 74 1012.2
20260510022922 61 96 2.0 2.0 0.00 0.01 0.01 76 1011.9
20260510022421 62 126 0.0 0.0 0.00 0.01 0.01 73 1012.1
20260510021920 62 116 0.0 0.0 0.00 0.01 0.01 72 1011.8
20260510021419 62 122 0.0 0.0 0.00 0.01 0.01 71 1011.5
20260510020915 62 120 0.0 0.0 0.00 0.01 0.01 73 1011.5
20260510020410 62 122 0.0 0.0 0.00 0.01 0.01 73 1011.5
20260510015906 62 123 0.0 0.0 0.00 0.01 0.01 74 1011.1
20260510015402 63 121 0.0 0.0 0.00 0.01 0.01 74 1011.0
20260510014857 64 114 1.0 1.0 0.00 0.01 0.01 74 1011.1
20260510014355 64 119 0.0 0.0 0.00 0.01 0.01 72 1010.8
20260510013851 64 124 0.0 0.0 0.00 0.01 0.01 72 1010.9
20260510013346 65 124 0.0 0.0 0.00 0.01 0.01 71 1010.8
20260510012841 66 124 0.0 0.0 0.00 0.01 0.01 70 1010.8
20260510012341 66 122 0.0 0.0 0.00 0.01 0.01 69 1010.8
20260510011837 66 122 0.0 0.0 0.00 0.01 0.01 68 1010.7
20260510011332 67 125 0.0 0.0 0.00 0.01 0.01 66 1010.9
20260510010829 68 122 0.0 0.0 0.00 0.01 0.01 66 1010.9
20260510010326 69 116 0.0 0.0 0.00 0.01 0.01 67 1010.6
20260510005822 69 125 0.0 0.0 0.00 0.01 0.01 61 1010.8
20260510005319 70 124 0.0 0.0 0.00 0.01 0.01 62 1010.8
20260510004817 71 122 0.0 0.0 0.00 0.01 0.01 59 1010.8
20260510004314 72 124 0.0 0.0 0.00 0.01 0.01 57 1010.6
20260510003812 73 127 0.0 0.0 0.00 0.01 0.01 55 1010.4
20260510003308 74 128 0.0 0.0 0.00 0.01 0.01 54 1010.4
20260510002807 76 126 0.0 0.0 0.00 0.01 0.01 52 1010.4
20260510002307 77 126 0.0 0.0 0.00 0.01 0.01 49 1010.3
20260510001801 78 127 0.0 0.0 0.00 0.01 0.01 47 1010.3
20260510001259 79 134 0.0 0.0 0.00 0.01 0.01 44 1010.5
20260510000754 79 136 0.0 0.0 0.00 0.01 0.01 42 1010.5
20260510000253 78 142 0.0 0.0 0.00 0.01 0.01 46 1010.3
20260509235749 78 151 1.0 1.0 0.00 0.01 0.01 42 1010.4
20260509235246 79 178 1.0 2.0 0.00 0.01 0.01 40 1010.3
20260509234741 79 154 1.0 1.0 0.00 0.01 0.01 44 1010.3
20260509234238 80 180 2.0 3.0 0.00 0.01 0.01 41 1010.4
20260509233737 79 166 1.0 1.0 0.00 0.01 0.01 40 1010.5
20260509233234 79 163 1.0 2.0 0.00 0.01 0.01 42 1010.5
20260509232730 80 194 2.0 2.0 0.00 0.01 0.01 40 1010.3
20260509232227 80 205 2.0 2.0 0.00 0.01 0.01 41 1010.3
20260509231724 80 170 1.0 2.0 0.00 0.01 0.01 42 1010.1
20260509231221 80 162 1.0 1.0 0.00 0.01 0.01 38 1010.4
20260509230719 80 173 2.0 2.0 0.00 0.01 0.01 37 1010.6
20260509230215 80 198 2.0 2.0 0.00 0.01 0.01 38 1010.6
20260509225710 80 186 2.0 2.0 0.00 0.01 0.01 38 1010.2
20260509225206 81 184 3.0 3.0 0.00 0.01 0.01 38 1010.4
20260509224656 81 180 1.0 2.0 0.00 0.01 0.01 37 1010.5
20260509224154 81 171 1.0 1.0 0.00 0.01 0.01 32 1010.2
20260509223650 82 207 4.0 5.0 0.00 0.01 0.01 32 1010.2
20260509223148 82 189 2.0 3.0 0.00 0.01 0.01 31 1010.3
20260509222644 82 130 1.0 2.0 0.00 0.01 0.01 33 1010.3
20260509222140 81 263 3.0 3.0 0.00 0.01 0.01 34 1010.4
20260509221636 81 203 3.0 3.0 0.00 0.01 0.01 37 1010.4
20260509221132 81 185 3.0 3.0 0.00 0.01 0.01 34 1010.4
20260509220628 81 257 4.0 5.0 0.00 0.01 0.01 39 1010.2
20260509220124 81 224 3.0 3.0 0.00 0.01 0.01 36 1010.2
20260509215620 81 166 5.0 6.0 0.00 0.01 0.01 33 1010.4
20260509215117 81 170 3.0 3.0 0.00 0.01 0.01 33 1010.4
20260509214614 82 229 6.0 8.0 0.00 0.01 0.01 35 1010.4
20260509214111 82 199 2.0 2.0 0.00 0.01 0.01 35 1010.5
20260509213607 81 142 1.0 2.0 0.00 0.01 0.01 34 1010.4
20260509213104 82 179 5.0 6.0 0.00 0.01 0.01 34 1010.6
20260509212601 82 215 3.0 5.0 0.00 0.01 0.01 32 1010.4
20260509212058 83 159 0.0 1.0 0.00 0.01 0.01 32 1010.4
20260509211554 82 59 1.0 2.0 0.00 0.01 0.01 32 1010.5
20260509211050 82 169 1.0 1.0 0.00 0.01 0.01 32 1010.4
20260509210547 82 220 4.0 5.0 0.00 0.01 0.01 33 1010.4
20260509210044 81 140 2.0 3.0 0.00 0.01 0.01 35 1010.3
20260509205544 82 163 3.0 5.0 0.00 0.01 0.01 40 1010.5
20260509205039 82 178 3.0 3.0 0.00 0.01 0.01 34 1010.6
20260509204536 82 329 3.0 3.0 0.00 0.01 0.01 31 1010.5
20260509204032 81 195 2.0 2.0 0.00 0.01 0.01 34 1010.7
20260509203527 80 246 3.0 3.0 0.00 0.01 0.01 35 1010.7
20260509203027 80 206 3.0 3.0 0.00 0.01 0.01 34 1010.7
20260509202521 82 241 4.0 6.0 0.00 0.01 0.01 35 1010.7
20260509202017 82 273 5.0 7.0 0.00 0.01 0.01 34 1010.9
20260509201512 82 19 3.0 3.0 0.00 0.01 0.01 36 1011.0
20260509201010 81 141 1.0 2.0 0.00 0.01 0.01 35 1011.1
20260509200504 81 245 4.0 6.0 0.00 0.01 0.01 40 1011.1
20260509200001 81 234 4.0 5.0 0.00 0.01 0.01 34 1011.3
20260509195456 81 168 2.0 2.0 0.00 0.01 0.01 36 1011.3
20260509194955 80 355 3.0 3.0 0.00 0.01 0.01 40 1011.3
20260509194451 80 292 3.0 3.0 0.00 0.01 0.01 36 1011.1
20260509193949 80 179 3.0 3.0 0.00 0.01 0.01 38 1011.1
20260509193448 80 193 3.0 3.0 0.00 0.01 0.01 38 1011.3
20260509192945 82 219 7.0 8.0 0.00 0.01 0.01 35 1011.1
20260509192442 82 189 2.0 2.0 0.00 0.01 0.01 37 1011.4
20260509191937 81 159 1.0 1.0 0.00 0.01 0.01 38 1011.3
20260509191432 81 205 3.0 5.0 0.00 0.01 0.01 39 1011.4
20260509190928 80 101 1.0 2.0 0.00 0.01 0.01 35 1011.4
20260509190426 80 117 0.0 1.0 0.00 0.01 0.01 39 1011.4
20260509185923 81 44 2.0 3.0 0.00 0.01 0.01 38 1011.6
20260509185420 80 3 3.0 3.0 0.00 0.01 0.01 36 1011.4
20260509184917 80 204 3.0 3.0 0.00 0.01 0.01 37 1011.3
20260509184414 80 279 3.0 5.0 0.00 0.01 0.01 37 1011.4
20260509183911 80 163 2.0 2.0 0.00 0.01 0.01 37 1011.3
20260509183405 80 319 2.0 2.0 0.00 0.01 0.01 37 1011.3
20260509182902 80 81 1.0 2.0 0.00 0.01 0.01 37 1011.4
20260509182359 81 12 3.0 3.0 0.00 0.01 0.01 36 1011.3
20260509181856 80 180 0.0 1.0 0.00 0.01 0.01 37 1011.3
20260509181353 80 33 2.0 2.0 0.00 0.01 0.01 40 1011.1
20260509180851 79 121 0.0 1.0 0.00 0.01 0.01 38 1011.4
20260509180346 78 251 1.0 3.0 0.00 0.01 0.01 40 1011.3
20260509175843 78 9 4.0 7.0 0.00 0.01 0.01 44 1011.5
20260509175340 78 225 7.0 7.0 0.00 0.01 0.01 45 1011.5
20260509174835 79 171 3.0 3.0 0.00 0.01 0.01 47 1011.6
20260509174332 79 112 0.0 0.0 0.00 0.01 0.01 46 1011.6
20260509173827 78 108 2.0 2.0 0.00 0.01 0.01 46 1011.7
20260509173323 78 214 7.0 8.0 0.00 0.01 0.01 49 1011.8
20260509172820 78 287 4.0 5.0 0.00 0.01 0.01 48 1011.6
20260509172316 78 284 6.0 7.0 0.00 0.01 0.01 48 1011.8
20260509171812 78 201 2.0 3.0 0.00 0.01 0.01 51 1011.7
20260509171308 77 314 2.0 2.0 0.00 0.01 0.01 47 1011.8
20260509170805 77 224 3.0 5.0 0.00 0.01 0.01 47 1011.6
20260509170301 77 203 5.0 7.0 0.00 0.01 0.01 49 1011.8
20260509165800 77 155 2.0 2.0 0.00 0.01 0.01 50 1012.0
20260509165255 77 29 2.0 2.0 0.00 0.01 0.01 49 1011.8
20260509164751 76 211 3.0 3.0 0.00 0.01 0.01 52 1011.8
20260509164248 75 184 4.0 6.0 0.00 0.01 0.01 53 1011.9
20260509163745 75 212 5.0 5.0 0.00 0.01 0.01 51 1011.7
20260509163241 76 228 3.0 5.0 0.00 0.01 0.01 57 1012.0
20260509162740 76 176 1.0 1.0 0.00 0.01 0.01 54 1011.8
20260509162233 76 201 2.0 2.0 0.00 0.01 0.01 55 1011.7
20260509161729 75 213 2.0 2.0 0.00 0.01 0.01 53 1011.7
20260509161226 75 216 5.0 6.0 0.00 0.01 0.01 56 1011.7
20260509160721 76 225 3.0 5.0 0.00 0.01 0.01 59 1011.8
20260509160218 75 102 0.0 1.0 0.00 0.01 0.01 61 1011.7
20260509155713 75 194 3.0 5.0 0.00 0.01 0.01 58 1011.7
20260509155210 74 206 4.0 5.0 0.00 0.01 0.01 58 1011.6
20260509154706 73 161 2.0 3.0 0.00 0.01 0.01 60 1011.5
20260509154203 73 228 3.0 3.0 0.00 0.01 0.01 63 1011.6
20260509153700 73 134 1.0 1.0 0.00 0.01 0.01 61 1011.7
20260509153156 72 213 3.0 5.0 0.00 0.01 0.01 62 1011.6
20260509152652 72 213 3.0 3.0 0.00 0.01 0.01 62 1011.6
20260509152149 71 161 1.0 1.0 0.00 0.01 0.01 66 1011.9
20260509151646 70 163 0.0 0.0 0.00 0.01 0.01 67 1011.7
20260509151143 71 232 3.0 3.0 0.00 0.01 0.01 68 1011.9
20260509150641 71 257 5.0 7.0 0.00 0.01 0.01 69 1011.5
20260509150139 71 229 3.0 3.0 0.00 0.01 0.01 68 1011.7
20260509145635 70 103 1.0 1.0 0.00 0.01 0.01 71 1011.6
20260509145130 70 194 3.0 3.0 0.00 0.01 0.01 71 1011.8
20260509144627 69 115 1.0 2.0 0.00 0.01 0.01 71 1011.7
20260509144124 69 151 1.0 2.0 0.00 0.01 0.01 72 1011.8
20260509143621 68 122 1.0 2.0 0.00 0.01 0.01 75 1011.6
20260509143119 67 115 1.0 1.0 0.00 0.01 0.01 77 1011.4
20260509142614 66 139 1.0 1.0 0.00 0.01 0.01 80 1011.4
20260509142111 65 227 2.0 2.0 0.00 0.01 0.01 80 1011.4
20260509141607 65 60 2.0 3.0 0.00 0.01 0.01 84 1011.5
20260509141103 64 179 2.0 2.0 0.00 0.01 0.01 86 1011.4
20260509140600 64 11 3.0 5.0 0.00 0.01 0.01 89 1011.7
20260509140058 63 344 3.0 3.0 0.00 0.01 0.01 91 1011.5
20260509135555 62 174 2.0 2.0 0.00 0.01 0.01 92 1011.3
20260509135053 62 346 2.0 3.0 0.00 0.01 0.01 94 1011.5
20260509134549 61 81 1.0 2.0 0.00 0.01 0.01 95 1011.3
20260509134047 61 137 1.0 1.0 0.00 0.01 0.01 96 1011.3
20260509133544 60 155 1.0 1.0 0.00 0.01 0.01 97 1011.5
20260509133042 60 80 1.0 2.0 0.00 0.01 0.01 98 1011.5
20260509132540 60 133 0.0 1.0 0.00 0.01 0.01 98 1011.3
20260509132038 59 46 2.0 2.0 0.00 0.01 0.01 99 1011.3
20260509131533 59 127 1.0 1.0 0.00 0.01 0.01 99 1011.0
20260509131031 59 126 1.0 2.0 0.00 0.01 0.01 99 1011.0
20260509130526 59 125 1.0 2.0 0.00 0.01 0.01 99 1011.3
20260509130023 58 111 1.0 1.0 0.00 0.01 0.01 99 1011.4
20260509125520 57 228 2.0 2.0 0.00 0.01 0.01 99 1011.3
20260509125016 57 113 1.0 1.0 0.00 0.01 0.01 99 1011.4
20260509124513 57 155 0.0 1.0 0.00 0.01 0.01 99 1011.4
20260509124010 57 131 0.0 0.0 0.00 0.01 0.01 99 1011.4
20260509123508 57 157 1.0 1.0 0.00 0.01 0.01 99 1011.4
20260509123004 57 111 0.0 0.0 0.00 0.01 0.01 99 1010.9
20260509122500 58 116 0.0 0.0 0.00 0.01 0.01 99 1011.1
20260509121957 56 120 0.0 0.0 0.00 0.01 0.01 99 1011.3
20260509121454 55 120 0.0 0.0 0.00 0.01 0.01 99 1010.9
20260509120952 56 120 0.0 0.0 0.07 0.01 0.01 99 1010.8
20260509120449 55 120 0.0 0.0 0.07 0.01 0.01 99 1010.8
20260509115948 53 121 0.0 0.0 0.00 0.00 0.00 99 1011.0
20260509115444 51 122 0.0 0.0 0.00 0.00 0.00 99 1010.7
20260509114942 50 121 0.0 0.0 0.00 0.00 0.00 99 1010.7
20260509114440 49 122 0.0 0.0 0.00 0.00 0.00 99 1010.7
20260509113939 49 122 0.0 0.0 0.00 0.00 0.00 99 1010.6
20260509113436 49 116 0.0 0.0 0.00 0.00 0.00 99 1010.4
20260509112933 49 120 0.0 0.0 0.00 0.00 0.00 99 1010.5
20260509112430 49 120 0.0 0.0 0.00 0.00 0.00 99 1010.6
20260509111927 49 120 0.0 0.0 0.00 0.00 0.00 99 1010.3
20260509111425 49 115 0.0 0.0 0.00 0.00 0.00 99 1010.2
20260509110922 48 117 0.0 0.0 0.00 0.00 0.00 99 1010.4
20260509110417 48 126 0.0 0.0 0.00 0.00 0.00 99 1010.5
20260509105916 48 123 0.0 0.0 0.00 0.00 0.00 99 1010.4
20260509105414 49 127 0.0 0.0 0.00 0.00 0.00 99 1010.1